STARLINK-4214 (52877 NORAD) Tracking and Keplerian Element Data

This shows tracking and keplerian element data for the satellite.

Feedback or suggestion? Click here.




ElementValue
Catalog52877
NameSTARLINK-4214
Epoch Orbit1642
Epoch Day270.25001157
Epoch Year2022
RAAN267.9627
Inclination53.2168
Eccentricity0.0001505
Argument of Perigee59.5499
Mean Anonmoly3.5206
Mean Motion15.1143374
Decay Rate-0.0111382
L11 52877U 22062AZ 22270.25001157 -.01113820 00000+0 -70583-1 0 9996
L22 52877 53.2168 267.9627 0001505 59.5499 3.5206 15.11433740 16425

Live tracking and technical data element details for STARLINK-4214 (NORAD 52877). STARLINK-4214 can be tracked NOW for your location showing map with azimuth and elevation plus other details from your city location.

Track the satellite on the map from your city or location and see movement details for azimuth, elevation, latitude, longitude, range, height, and movement on the map or in text.







IsCatalogInMostPopularTable: catalog: 52877, numindb: 6
Update: records affected: 1



GetName: 52877 STARLINK-4214

Hit Count: updated at: Thu, 06 Oct 2022 03:11:21 GMT